Pineville, WV

12:54 PM EST on December 07, 2019 (GMT -0500)
Pineville

Weather History for KI16 - October, 2019

Change the Weather History Date:

Wednesday, October 16, 2019

  Actual Average (WUND) Record (WUND)
Temperature  
Mean Temperature 50 °F -  
Max Temperature 56 °F - - (-1)
Min Temperature 44 °F - - (-1)
Degree Days  
Heating Degree Days 15    
Moisture  
Dew Point 47 °F    
Average Humidity 83    
Maximum Humidity 99    
Minimum Humidity 58    
Precipitation  
Precipitation 0.00 in - - ()
Sea Level Pressure  
Sea Level Pressure 29.88 in    
Wind  
Wind Speed - (North)    
Max Wind Speed -    
Max Gust Speed -    
Visibility 8 miles    
Events Rain    
Averages and records for this station are not official NWS values.
T = Trace of Precipitation, MM = Missing Value Source: NWS Daily Summary

Daily Weather History Graph

Daily Weather History Graph

Search for Another Location

Airport or City:

Astronomy

Oct. 16, 2019 Rise Set
Actual Time 7:35 AM EDT 6:47 PM EDT
Civil Twilight 7:08 AM EDT 7:14 PM EDT
Nautical Twilight 6:38 AM EDT 7:44 PM EDT
Astronomical Twilight 6:08 AM EDT 8:14 PM EDT
Moon 8:43 PM EDT (10/16) 10:02 AM EDT (10/16)
Length of Visible Light 12h 05m
Length of Day
11h 12m
Waning Gibbous, 93% of the Moon is Illuminated
Oct 16
Waning Gibbous
Oct 21
Last Quarter
Oct 27
New
Nov 4
First Quarter
Nov 12
Full

Hourly Weather History & Observations

Time (EDT) Temp. Dew Point Humidity Pressure Visibility Wind Dir Wind Speed Gust Speed Precip Events Conditions
12:15 AM 52.2 °F 46.8 °F 82% 29.97 in 10.0 mi North - - N/A   Clear
12:35 AM 51.8 °F 46.4 °F 82% 29.97 in 10.0 mi North - - N/A   Scattered Clouds
12:55 AM 52.2 °F 46.9 °F 82% 29.96 in 10.0 mi North - - N/A   Mostly Cloudy
1:15 AM 53.2 °F 47.7 °F 81% 29.95 in 10.0 mi North - - N/A   Overcast
1:35 AM 53.6 °F 47.7 °F 80% 29.94 in 10.0 mi North - - N/A   Mostly Cloudy
1:55 AM 54.1 °F 48.2 °F 80% 29.93 in 10.0 mi North - - N/A   Scattered Clouds
2:15 AM 54.3 °F 48.4 °F 80% 29.92 in 10.0 mi North - - N/A   Mostly Cloudy
2:35 AM 55.0 °F 48.7 °F 79% 29.92 in 10.0 mi North - - N/A   Scattered Clouds
2:55 AM 55.0 °F 48.9 °F 80% 29.91 in 10.0 mi North - - N/A   Mostly Cloudy
3:15 AM 55.9 °F 49.5 °F 79% 29.90 in 10.0 mi North - - N/A   Overcast
3:35 AM 55.9 °F 50.0 °F 80% 29.91 in 10.0 mi North - - N/A   Light Drizzle
3:55 AM 54.3 °F 51.3 °F 89% 29.91 in 4.0 mi North - - N/A Rain Rain
4:15 AM 53.6 °F 52.0 °F 94% 29.89 in 3.0 mi North - - N/A Rain Heavy Rain
4:35 AM 54.0 °F 52.7 °F 95% 29.89 in 2.5 mi North - - N/A Rain Light Rain
4:55 AM 54.5 °F 53.6 °F 97% 29.88 in 3.0 mi North - - N/A Rain Light Rain
5:15 AM 54.9 °F 54.5 °F 99% 29.87 in 4.0 mi North - - N/A   Drizzle
5:35 AM 55.4 °F 55.0 °F 99% 29.85 in 5.0 mi North - - N/A   Heavy Drizzle
5:55 AM 55.8 °F 55.4 °F 99% 29.85 in 2.0 mi North - - N/A Rain Heavy Rain
6:15 AM 55.9 °F 55.4 °F 98% 29.83 in 2.5 mi North - - N/A Rain Rain
6:35 AM 55.6 °F 55.0 °F 98% 29.83 in 5.0 mi North - - N/A Rain Light Rain
6:55 AM 55.6 °F 55.0 °F 98% 29.80 in 3.0 mi North - - N/A Rain Rain
7:15 AM 55.8 °F 55.4 °F 99% 29.80 in 3.0 mi North - - N/A Rain Rain
7:35 AM 55.8 °F 55.4 °F 99% 29.79 in 3.0 mi North - - N/A Rain Rain
7:55 AM 55.8 °F 55.4 °F 99% 29.78 in 5.0 mi North - - N/A Rain Light Rain
8:15 AM 55.8 °F 55.4 °F 99% 29.80 in 3.0 mi North - - N/A Rain Heavy Rain
8:35 AM 56.3 °F 55.6 °F 97% 29.81 in 1.5 mi North - - N/A   Overcast
8:55 AM 56.5 °F 55.8 °F 97% 29.82 in 2.5 mi North - - N/A Rain Light Rain
9:20 AM 56.3 °F 55.6 °F 97% 29.79 in 3.0 mi North - - N/A Rain Light Rain
9:40 AM 55.9 °F 55.4 °F 98% 29.78 in 7.0 mi North - - N/A Rain Light Rain
9:55 AM 56.3 °F 55.6 °F 97% 29.79 in 10.0 mi North - - N/A Rain Light Rain
10:15 AM 56.5 °F 55.8 °F 97% 29.78 in 4.0 mi North - - N/A Rain Rain
10:35 AM 56.7 °F 55.9 °F 97% 29.78 in 4.0 mi North - - N/A Rain Light Rain
10:55 AM 56.8 °F 56.1 °F 97% 29.77 in 7.0 mi North - - N/A Rain Heavy Rain
11:15 AM 55.9 °F 55.0 °F 97% 29.80 in 5.0 mi North - - N/A Rain Rain
11:35 AM 54.5 °F 50.9 °F 88% 29.82 in 7.0 mi North - - N/A Rain Rain
11:55 AM 53.2 °F 50.7 °F 91% 29.83 in 4.0 mi North - - N/A Rain Rain
12:15 PM 52.3 °F 49.6 °F 91% 29.84 in 3.0 mi North - - N/A Rain Rain
12:35 PM 50.7 °F 48.0 °F 90% 29.84 in 7.0 mi North - - N/A Rain Light Rain
12:55 PM 51.8 °F 49.3 °F 91% 29.84 in 10.0 mi North - - N/A   Overcast
1:15 PM 53.4 °F 47.8 °F 81% 29.84 in 10.0 mi North - - N/A   Scattered Clouds
1:35 PM 53.1 °F 45.0 °F 74% 29.85 in 10.0 mi North - - N/A   Scattered Clouds
1:55 PM 54.3 °F 46.4 °F 75% 29.84 in 10.0 mi North - - N/A   Mostly Cloudy
2:15 PM 53.6 °F 46.0 °F 76% 29.84 in 10.0 mi North - - N/A   Mostly Cloudy
2:35 PM 53.6 °F 43.9 °F 70% 29.84 in 10.0 mi North - - N/A   Mostly Cloudy
3:15 PM 55.0 °F 42.8 °F 63% 29.83 in 10.0 mi North - - N/A   Mostly Cloudy
3:35 PM 55.6 °F 42.6 °F 62% 29.83 in 10.0 mi North - - N/A   Scattered Clouds
3:55 PM 55.0 °F 43.0 °F 64% 29.83 in 10.0 mi North - - N/A   Mostly Cloudy
4:15 PM 56.5 °F 41.9 °F 58% 29.84 in 10.0 mi North - - N/A   Overcast
4:35 PM 55.4 °F 41.7 °F 60% 29.85 in 10.0 mi North - - N/A   Overcast
4:55 PM 54.5 °F 40.6 °F 60% 29.86 in 10.0 mi North - - N/A   Unknown
5:15 PM 53.8 °F 40.8 °F 62% 29.85 in 10.0 mi North - - N/A   Unknown
5:35 PM 53.4 °F 41.0 °F 63% 29.86 in 10.0 mi North - - N/A   Unknown
5:55 PM 52.7 °F 40.3 °F 63% 29.87 in 10.0 mi North - - N/A   Unknown
6:15 PM 52.0 °F 40.1 °F 64% 29.89 in 10.0 mi North - - N/A   Overcast
6:40 PM 50.9 °F 39.2 °F 64% 29.90 in 10.0 mi North - - N/A   Overcast
6:55 PM 50.0 °F 39.0 °F 66% 29.92 in 10.0 mi North - - N/A   Overcast
7:35 PM 48.0 °F 38.3 °F 69% 29.96 in 10.0 mi North - - N/A   Overcast
7:55 PM 46.9 °F 38.3 °F 72% 29.95 in 10.0 mi North - - N/A   Overcast
8:15 PM 46.6 °F 37.9 °F 72% 29.96 in 10.0 mi North - - N/A   Overcast
8:35 PM 46.4 °F 38.5 °F 74% 29.97 in 10.0 mi North - - N/A   Light Drizzle
8:55 PM 45.5 °F 39.2 °F 79% 29.97 in 7.0 mi North - - N/A   Drizzle
9:15 PM 45.3 °F 39.9 °F 81% 29.97 in 10.0 mi North - - N/A Rain Light Rain
9:35 PM 45.1 °F 40.3 °F 83% 29.97 in 10.0 mi North - - N/A   Drizzle
9:55 PM 45.0 °F 40.3 °F 84% 29.97 in 10.0 mi North - - N/A   Overcast
10:15 PM 45.0 °F 40.6 °F 85% 29.98 in 10.0 mi North - - N/A   Light Drizzle
10:35 PM 44.6 °F 40.8 °F 87% 29.98 in 5.0 mi North - - N/A   Drizzle
10:55 PM 44.6 °F 41.0 °F 87% 29.98 in 10.0 mi North - - N/A   Overcast
11:15 PM 44.6 °F 41.0 °F 87% 29.98 in 10.0 mi North - - N/A   Unknown
11:35 PM 45.0 °F 40.5 °F 84% 29.98 in 10.0 mi North - - N/A   Unknown
11:55 PM 45.5 °F 40.3 °F 82% 29.98 in 10.0 mi North - - N/A   Unknown